Weather History for Cincinnati, OH

Change the Weather History Date:

Saturday, September 14, 2013

  Actual Average Record
Temperature  
Mean Temperature 56 °F -  
Max Temperature 71 °F 80 °F 96 °F (1998)
Min Temperature 42 °F 59 °F 40 °F (1964)
Degree Days  
Heating Degree Days 9    
Growing Degree Days 6 (Base 50)    
Moisture  
Dew Point 44 °F    
Average Humidity 81    
Maximum Humidity 100    
Minimum Humidity 33    
Precipitation  
Precipitation 0.00 in - - ()
Sea Level Pressure  
Sea Level Pressure 30.15 in    
Wind  
Wind Speed 1 mph (NE)    
Max Wind Speed 10 mph    
Max Gust Speed -    
Visibility 7 miles    
Events Fog    
Averages and records for this station are not official NWS values.
T = Trace of Precipitation, MM = Missing Value Source: NWS Daily Summary

Daily Weather History Graph

Daily Weather History Graph

Search for Another Location

Airport:

Trip Planner

Search our weather history database for the weather conditions in past years. The results will help you decide how hot, cold, wet, or windy it might be!

Date:

Astronomy

Sep. 14, 2013 Rise Set
Actual Time 7:18 AM EDT 7:47 PM EDT
Civil Twilight 6:51 AM EDT 8:14 PM EDT
Nautical Twilight 6:19 AM EDT 8:45 PM EDT
Astronomical Twilight 5:47 AM EDT 9:17 PM EDT
Moon 4:26 PM EDT (9/14) 1:51 AM EDT (9/14)
Length of Visible Light 13h 22m
Length of Day
12h 28m
Waxing Gibbous, 72% of the Moon is Illuminated
Sep 14
Waxing Gibbous
Sep 19
Full
Sep 26
Last Quarter
Oct 4
New
Oct 11
First Quarter

Hourly Weather History & Observations

Time (EDT) Temp. Dew Point Humidity Pressure Visibility Wind Dir Wind Speed Gust Speed Precip Events Conditions
12:53 AM 48.9 °F 46.0 °F 90% 30.12 in 10.0 mi NE 3.5 mph - N/A   Clear
1:53 AM 46.9 °F 45.0 °F 93% 30.12 in 10.0 mi Calm Calm - N/A   Clear
2:53 AM 48.0 °F 46.0 °F 93% 30.13 in 10.0 mi Calm Calm - N/A   Clear
3:53 AM 46.9 °F 45.0 °F 93% 30.14 in 10.0 mi Calm Calm - N/A   Clear
4:53 AM 45.0 °F 45.0 °F 100% 30.14 in 9.0 mi Calm Calm - N/A   Clear
5:13 AM 44.6 °F 44.6 °F 100% 30.14 in 1.0 mi Calm Calm - N/A   Clear
5:27 AM 44.6 °F 44.6 °F 100% 30.14 in 4.0 mi Calm Calm - N/A   Clear
5:31 AM 44.6 °F 44.6 °F 100% 30.15 in 1.8 mi Calm Calm - N/A   Clear
5:41 AM 44.6 °F 42.8 °F 93% 30.14 in 4.0 mi Calm Calm - N/A   Clear
5:51 AM 44.6 °F 44.6 °F 100% 30.15 in 2.0 mi Calm Calm - N/A   Partly Cloudy
5:53 AM 44.1 °F 44.1 °F 100% 30.15 in 1.2 mi Calm Calm - N/A   Partly Cloudy
5:56 AM 44.6 °F 44.6 °F 100% 30.15 in 0.8 mi Calm Calm - N/A   Mist
6:01 AM 44.6 °F 44.6 °F 100% 30.15 in 1.0 mi Calm Calm - N/A   Clear
6:05 AM 44.6 °F 44.6 °F 100% 30.15 in 3.0 mi Calm Calm - N/A   Clear
6:17 AM 44.6 °F 42.8 °F 93% 30.15 in 1.8 mi Calm Calm - N/A   Clear
6:25 AM 44.6 °F 42.8 °F 93% 30.15 in 3.0 mi Calm Calm - N/A   Clear
6:30 AM 42.8 °F 42.8 °F 100% 30.15 in 1.5 mi Calm Calm - N/A   Clear
6:40 AM 42.8 °F 42.8 °F 100% 30.15 in 0.8 mi Calm Calm - N/A   Clear
6:49 AM 44.6 °F 44.6 °F 100% 30.16 in 1.5 mi Calm Calm - N/A   Clear
6:53 AM 44.1 °F 44.1 °F 100% 30.16 in 10.0 mi Calm Calm - N/A Fog Patches of Fog
7:53 AM 45.0 °F 44.1 °F 97% 30.18 in 10.0 mi Calm Calm - N/A   Clear
8:53 AM 50.0 °F 46.0 °F 86% 30.19 in 10.0 mi ENE 3.5 mph - N/A   Clear
9:53 AM 55.0 °F 45.0 °F 69% 30.20 in 10.0 mi ENE 6.9 mph - N/A   Clear
10:53 AM 59.0 °F 44.1 °F 58% 30.20 in 10.0 mi NNE 10.4 mph - N/A   Clear
11:53 AM 61.0 °F 42.1 °F 50% 30.19 in 10.0 mi East 6.9 mph - N/A   Clear
12:53 PM 64.0 °F 42.1 °F 45% 30.19 in 10.0 mi Variable 4.6 mph - N/A   Clear
1:53 PM 66.0 °F 43.0 °F 43% 30.17 in 10.0 mi North 4.6 mph - N/A   Clear
2:53 PM 68.0 °F 43.0 °F 40% 30.15 in 10.0 mi Variable 3.5 mph - N/A   Clear
3:53 PM 69.1 °F 42.1 °F 38% 30.13 in 10.0 mi Variable 3.5 mph - N/A   Clear
4:53 PM 69.1 °F 41.0 °F 36% 30.12 in 10.0 mi Calm Calm - N/A   Clear
5:53 PM 70.0 °F 39.9 °F 33% 30.11 in 10.0 mi Variable 3.5 mph - N/A   Clear
6:53 PM 68.0 °F 44.1 °F 42% 30.12 in 10.0 mi NE 4.6 mph - N/A   Clear
7:53 PM 60.1 °F 48.9 °F 67% 30.12 in 10.0 mi Calm Calm - N/A   Clear
8:53 PM 55.0 °F 48.9 °F 80% 30.15 in 10.0 mi Calm Calm - N/A   Clear
9:53 PM 53.1 °F 50.0 °F 89% 30.15 in 10.0 mi Calm Calm - N/A   Clear
10:53 PM 51.1 °F 48.0 °F 89% 30.14 in 10.0 mi Calm Calm - N/A   Clear
11:53 PM 50.0 °F 48.0 °F 93% 30.14 in 10.0 mi Calm Calm - N/A   Clear